Flag for Canada Weather past 2 weeks in Coral Harbour, Nunavut Territory, Canada

Now
-22 °F

Passing clouds.


Feels Like: -36 °F
Forecast: -25 / -9 °F
Wind: 5 mph from Northeast

Location: Coral Harbour

Current Time: Mar 29, 2015 at 8:57:12 AM

Latest Report: Mar 29, 2015 at 8:00 AM


Visibility: 15 mi

Pressure: 29.74 "Hg

Humidity: 68%

Dew point: -29 °F

Location of Coral HarbourLocation

Historic Weather in Coral Harbour — Graph

°F

Coral Harbour temperature yesterday

Maximum temperature yesterday: -2 °F (at 2:00 PM)
Minimum temperature yesterday: -20 °F (at 7:00 AM)
Average temperature yesterday: -12 °F

Past Weeks' High & Low Weather Summary

 TemperatureHumidityPressure
High23 °F (Mar 16, 11:00 AM)93% (Mar 15, 9:00 PM)30.10 "Hg (Mar 15, 9:00 PM)
Low-27 °F (Mar 23, 6:00 AM)57% (Mar 23, 11:00 AM)28.61 "Hg (Mar 16, 2:00 PM)
Average-9 °F69%29.75 "Hg
* Reported Mar 14 7:00 AM — Mar 29 7:00 AM, Coral Harbour, Weather by CustomWeather, © 2015

Note: Actual official high and low records may vary slightly from our data, if they occured in-between our weather recording intervals... More about our weather records

Advertising

Coral Harbour weather history for previous 24 hours

 ConditionsComfort  
Time TempWeatherWind HumidityBarometerVisibility
7:00 AM
Sun, Mar 29
-24 °FPassing clouds.9 mph68%29.74 "Hg15 mi
6:00 AM-26 °FPassing clouds.6 mph67%29.73 "Hg15 mi
5:00 AM-24 °FPassing clouds.12 mph61%29.72 "Hg15 mi
4:00 AM-24 °FPassing clouds.14 mph61%29.72 "Hg15 mi
3:00 AM-24 °FPassing clouds.14 mph68%29.71 "Hg15 mi
2:00 AM-24 °FPassing clouds.14 mph68%29.70 "Hg15 mi
1:00 AM-22 °FPassing clouds.13 mph68%29.70 "Hg15 mi
12:00 AM-22 °FPassing clouds.17 mph68%29.69 "Hg15 mi
11:00 PM
Sat, Mar 28
-20 °FPassing clouds.16 mph62%29.69 "Hg15 mi
10:00 PM-18 °FPassing clouds.15 mph62%29.68 "Hg15 mi
9:00 PM-18 °FPassing clouds.15 mph69%29.68 "Hg15 mi
8:00 PM-17 °FPassing clouds.14 mph69%29.67 "Hg15 mi
7:00 PM-11 °FPassing clouds.5 mph63%29.66 "Hg15 mi
6:00 PM-8 °FLow level haze.16 mph64%29.62 "Hg15 mi
5:00 PM-6 °FLow level haze.17 mph64%29.61 "Hg15 mi
4:00 PM-4 °FPassing clouds.10 mph65%29.60 "Hg15 mi
3:00 PM-2 °FPassing clouds.15 mph59%29.58 "Hg15 mi
2:00 PM-2 °FSunny.9 mph59%29.56 "Hg15 mi
1:00 PM-4 °FSunny.8 mph65%29.56 "Hg15 mi
12:00 PM-6 °FSunny.18 mph64%29.54 "Hg15 mi
11:00 AM-8 °FSunny.16 mph64%29.53 "Hg15 mi
10:00 AM-11 °FSunny.21 mph63%29.52 "Hg15 mi
9:00 AM-15 °FSunny.21 mph63%29.51 "Hg15 mi
8:00 AM-18 °FSunny.16 mph69%29.51 "Hg15 mi
Weather by CustomWeather, © 2015

See weather overviewHow to use our weather pages